LiveATC.Net - Listen to live air traffic control over the Internet!


ICAO: KMQS  IATA: MQS   Airport: Chester County G O Carlson Airport
City: Coatesville   State/Province: Pennsylvania
Country: United States   Continent: North America
KMQS METAR Weather: KMQS 190915Z AUTO 00000KT 10SM CLR 10/09 A3034 RMK AO2
KMQS Flight Activity (FlightAware)
KMQS Airport Info   (iFlightPlanner)
KMQS VFR Sectional Chart   (iFlightPlanner) 
KMQS IFR Low Chart   (iFlightPlanner) 

KMQS/KPTW CTAF
Feed Status: DOWN
Last heard on: 2019-09-01 19:53:06 (17 days 13 hours 51 minutes ago)
KMQS/KPTW CTAF Audio Archives
FacilityFrequency
Chester County CTAF122.700
Pottstown CTAF122.700

NOTICE

Unauthorized use prohibited. See LiveATC.net Terms of Service


Airport/ARTCC Code
Frequency Search
(e.g., 124.400, 128.75)
Site-wide search
 


Browse LiveATC Feeds
Top 50 LiveATC Feeds
LiveATC Feed Map
Bad Weather Areas

LiveATC FAQ
Offer LiveATC feed
Contact LiveATC.net
Press Inquiries

LiveATC on iPhone
LiveATC on Android

Windows Phone
Windows 8/10

LiveATC Mobile
(Mobile browser)

ATC Audio Archives
Interesting Recordings

LiveATC Forums


Home Page
About LiveATC.net
Make a Donation
Terms of Use
Privacy Policy

Canadian Air Freqs

AIRMETs/SIGMETs

FAA Airport Status
Nat'l Airspace Status
Arrival Demand Charts


Server Software By:
Icecast.org
Liquidsoap